Volver al catálogo

STARLINK-34157

ActivoComunicacionesVLEO
NORAD 64084·PAYLOAD·🇺🇸 United States

Lanzado May 21, 2025 desde Cape Canaveral Space Force Station

Loading…

Próximos Pases (próximas 24 horas)

TLE

ActualizadoSource: CelesTrak SupGP

Época: Sep 15, 2026, 03:21 UTC

1 64084C 25107W   26258.14006944  .00003632  00000+0  13167-3 0  2580
2 64084  43.0019 211.4039 0001439 267.4158 214.7121 15.27547767    11

Sigue STARLINK-34157 en tiempo real con AllMySat

Download on the App Store